Tacoma Narrows, WA
on Saturday, February 2, 2013

Saturday
Previous Day Next Day
Daily Summary
 ActualAverageRecord
Temperature
Mean Temperature °F °F  
Max Temperature 44°F 46°F 59°F (2005)
Min Temperature 39°F 37°F 28°F (2011)
Degree Days
Heating Degree Days 24    
Moisture
Dew Point 38°F   
Average Humidity 89    
Maximum Humidity 93    
Minimum Humidity 81    
Precipitation
Precipitation 0.00 in in in ()
Wind
Wind Speed 4 mph   
Max Wind Speed 10 mph   
Max Gust Speed mph   
Visibility 5 miles   
Events Fog   
Averages and records for this station are not official NWS values.
Key: T is trace of precipitation, MM is missing value
Source: NWS Daily Summary
Seasonal Weather Averages
Time(PST)TemperatureDew PointHumidity Pressure Visibility Wind DirectionWind SpeedGust SpeedPrecipitationEvents Conditions
12:53 AM 44.6°F 41.0°F 87% 30.37 in 7.0 miles North 6.9 mph - N/A   Overcast
1:53 AM 44.1°F 41.0°F 89% 30.38 in 7.0 miles North 6.9 mph - N/A   Overcast
2:53 AM 43.0°F 41.0°F 93% 30.38 in 7.0 miles NNE 6.9 mph - N/A   Overcast
3:53 AM 42.8°F 39.2°F 87% 30.35 in 9.0 miles North 10.4 mph - N/A   Overcast
4:53 AM 42.1°F 39.9°F 92% 30.35 in 7.0 miles NNE 3.5 mph - N/A   Overcast
5:17 AM 42.8°F 39.2°F 87% 30.33 in 7.0 miles Calm Calm - N/A   Overcast
5:53 AM 42.1°F 39.0°F 89% 30.33 in 9.0 miles North 6.9 mph - N/A   Overcast
6:53 AM 41.0°F 39.0°F 93% 30.32 in 8.0 miles NNE 8.1 mph - N/A   Overcast
7:53 AM 41.0°F 39.0°F 93% 30.33 in 3.0 miles North 3.5 mph - N/A   Overcast
8:53 AM 41.0°F 39.0°F 93% 30.34 in 3.0 miles North 5.8 mph - N/A   Overcast
9:37 AM 42.8°F 37.4°F 81% 30.33 in 10.0 miles NE 3.5 mph - N/A   Overcast
9:53 AM 42.1°F 37.9°F 85% 30.34 in 6.0 miles NNE 4.6 mph - N/A   Overcast
10:53 AM 42.1°F 37.9°F 85% 30.34 in 7.0 miles NNW 4.6 mph - N/A   Overcast
11:53 AM 42.1°F 37.9°F 85% 30.32 in 10.0 miles Calm Calm - N/A   Overcast
12:53 PM 42.1°F 37.9°F 85% 30.31 in 10.0 miles Calm Calm - N/A   Overcast
1:53 PM 43.0°F 37.9°F 82% 30.30 in 10.0 miles Calm Calm - N/A   Overcast
2:53 PM 42.1°F 37.9°F 85% 30.29 in 10.0 miles Calm Calm - N/A   Overcast
3:53 PM 43.0°F 37.9°F 82% 30.28 in 9.0 miles Calm Calm - N/A   Overcast
4:53 PM 42.1°F 37.0°F 82% 30.27 in 5.0 miles Calm Calm - N/A   Haze
5:53 PM 41.0°F 37.0°F 86% 30.26 in 5.0 miles Calm Calm - N/A   Overcast
6:53 PM 41.0°F 37.9°F 89% 30.27 in 4.0 miles Calm Calm - N/A   Overcast
7:00 PM 41.0°F 37.4°F 87% 30.26 in 4.0 miles Calm Calm - N/A   Overcast
7:53 PM 39.9°F 37.0°F 89% 30.27 in 3.0 miles Calm Calm - N/A   Overcast
8:16 PM 39.2°F 37.4°F 93% 30.27 in 2.5 miles Calm Calm - N/A   Overcast
8:28 PM 39.2°F 37.4°F 93% 30.27 in 3.0 miles Calm Calm - N/A   Overcast
8:53 PM 39.2°F 37.4°F 93% 30.27 in 3.0 miles Calm Calm - N/A   Overcast
9:11 PM 39.2°F 37.4°F 93% 30.28 in 2.5 miles Calm Calm - N/A   Overcast
9:39 PM 39.2°F 37.4°F 93% 30.27 in 1.2 miles Calm Calm - N/A   Overcast
9:53 PM 39.9°F 37.9°F 93% 30.29 in 1.8 miles Calm Calm - N/A   Overcast
10:00 PM 39.2°F 37.4°F 93% 30.27 in 2.0 miles Calm Calm - N/A   Overcast
10:16 PM 39.2°F 37.4°F 93% 30.27 in 0.8 miles SSE 3.5 mph - N/A   Overcast
10:27 PM 39.2°F 37.4°F 93% 30.27 in 0.5 miles South 3.5 mph - N/A Fog Fog
10:38 PM 39.2°F 37.4°F 93% 30.27 in 0.2 miles South 4.6 mph - N/A Fog Fog
10:53 PM 39.0°F 37.0°F 93% 30.28 in 0.2 miles South 4.6 mph - N/A Fog Fog
11:53 PM 39.0°F 37.0°F 93% 30.30 in 0.2 miles Calm Calm - N/A Fog Fog
Moon Phase
Feb. 02 Feb. 03 Feb. 10 Feb. 17 Feb. 25
Sunrise:07:34 AM (PST) Moon Rise:No Moon Rise/
Sunset:05:14 PM (PST) Moon Set:10:16 AM (PST)2/2

Copyright © 2014 The Weather Underground, Inc.